Location: Bay Ridge
(40.6340°N, 74.0146°W)
Time: 21:09:15
(UTC+00:00)

Cosmos 1459 Rocket - Pass Details

Date: 15 November 2019
Orbit: 938 x 999 km, 83.0° (Epoch: 12 December)

Event Time Altitude Azimuth Distance (km) Brightness Sun altitude
Rises 10:22:10 0° 193° (SSW) 3,614 7.0 -15.3°
Reaches altitude 10° 10:24:39 10° 196° (SSW) 2,680 6.3 -14.9°
Maximum altitude 10:30:45 68° 279° (W) 1,040 3.9 -13.7°
Drops below altitude 10° 10:37:01 10° 2° (N) 2,741 6.2 -12.6°
Sets 10:39:35 0° 5° (N) 3,701 6.9 -12.1°
